Atwater, CA

11:47 AM PST on January 21, 2017 (GMT -0800)
Atwater

Weather History for KMER - March, 2014

Change the Weather History Date:

Sunday, March 2, 2014

  Actual Average (KMCE) Record (KMCE)
Temperature  
Mean Temperature 55 °F -  
Max Temperature 62 °F 62 °F 76 °F (2013)
Min Temperature 48 °F 41 °F 33 °F (2002)
Degree Days  
Heating Degree Days 10    
Growing Degree Days 5 (Base 50)    
Moisture  
Dew Point 53 °F    
Average Humidity 97    
Maximum Humidity 100    
Minimum Humidity 72    
Precipitation  
Precipitation 0.00 in - - ()
Sea Level Pressure  
Sea Level Pressure 30.02 in    
Wind  
Wind Speed 9 mph (SSE)    
Max Wind Speed 28 mph    
Max Gust Speed 29 mph    
Visibility 9 miles    
Events Rain    
Averages and records for this station are not official NWS values.
T = Trace of Precipitation, MM = Missing Value Source: NWS Daily Summary

Daily Weather History Graph

Daily Weather History Graph

Search for Another Location

Airport or City:

Trip Planner

Search our weather history database for the weather conditions in past years. The results will help you decide how hot, cold, wet, or windy it might be!

Date:

Astronomy

Mar. 02, 2014 Rise Set
Actual Time 6:31 AM PST 5:57 PM PST
Civil Twilight 6:05 AM PST 6:23 PM PST
Nautical Twilight 5:35 AM PST 6:53 PM PST
Astronomical Twilight 5:05 AM PST 7:24 PM PST
Moon 7:09 AM PST (3/2) 7:55 PM PST (3/2)
Length of Visible Light 12h 17m
Length of Day
11h 25m
Waxing Crescent, 3% of the Moon is Illuminated
Mar 2
Waxing Crescent
Mar 8
First Quarter
Mar 16
Full
Mar 23
Last Quarter
Mar 30
New

Hourly Weather History & Observations

Time (PST) Temp. Dew Point Humidity Pressure Visibility Wind Dir Wind Speed Gust Speed Precip Events Conditions
12:15 AM 48.2 °F 48.2 °F 100% 29.88 in 10.0 mi SSE 3.5 mph - N/A   Clear
12:35 AM 48.2 °F 48.2 °F 100% 29.88 in 10.0 mi SSE 6.9 mph - N/A   Clear
12:55 AM 48.2 °F 48.2 °F 100% 29.88 in 10.0 mi SE 8.1 mph - N/A   Clear
1:15 AM 50.0 °F 50.0 °F 100% 29.88 in 10.0 mi SSE 10.4 mph - N/A   Clear
1:35 AM 51.8 °F 51.8 °F 100% 29.89 in 10.0 mi SSE 10.4 mph - N/A   Clear
1:55 AM 51.8 °F 51.8 °F 100% 29.88 in 10.0 mi SSE 8.1 mph - N/A   Clear
2:15 AM 51.8 °F 51.8 °F 100% 29.88 in 10.0 mi South 10.4 mph - N/A   Clear
2:35 AM 51.8 °F 51.8 °F 100% 29.88 in 10.0 mi South 11.5 mph - N/A   Clear
2:55 AM 51.8 °F 51.8 °F 100% 29.88 in 10.0 mi South 11.5 mph - N/A   Clear
3:15 AM 51.8 °F 51.8 °F 100% 29.88 in 10.0 mi South 11.5 mph - N/A   Clear
3:35 AM 53.6 °F 53.6 °F 100% 29.88 in 10.0 mi South 13.8 mph - N/A   Clear
3:55 AM 53.6 °F 53.6 °F 100% 29.88 in 10.0 mi South 13.8 mph - N/A   Clear
4:15 AM 53.6 °F 53.6 °F 100% 29.90 in 10.0 mi South 12.7 mph - N/A   Clear
4:35 AM 53.6 °F 53.6 °F 100% 29.89 in 10.0 mi South 11.5 mph - N/A   Partly Cloudy
4:55 AM 53.6 °F 53.6 °F 100% 29.90 in 10.0 mi South 15.0 mph - N/A   Mostly Cloudy
5:15 AM 53.6 °F 53.6 °F 100% 29.90 in 10.0 mi South 12.7 mph - N/A   Overcast
5:35 AM 53.6 °F 53.6 °F 100% 29.91 in 10.0 mi South 12.7 mph - N/A   Overcast
5:55 AM 55.4 °F 53.6 °F 94% 29.92 in 10.0 mi SSW 12.7 mph 17.3 mph N/A   Overcast
6:45 AM 53.6 °F 53.6 °F 100% 29.94 in 10.0 mi South 11.5 mph - N/A   Overcast
7:45 AM 55.4 °F 53.6 °F 94% 29.98 in 10.0 mi SSE 11.5 mph - N/A   Overcast
8:45 AM 55.4 °F 53.6 °F 94% 30.01 in 10.0 mi SSE 13.8 mph - N/A   Mostly Cloudy
9:55 AM 57.2 °F 53.6 °F 88% 30.04 in 10.0 mi SSE 17.3 mph - N/A   Overcast
10:45 AM 62.6 °F 53.6 °F 72% 30.05 in 10.0 mi SSE 20.7 mph - N/A   Overcast
11:55 AM 62.6 °F 55.4 °F 77% 30.06 in 10.0 mi SSE 20.7 mph 28.8 mph N/A   Overcast
12:45 PM 62.6 °F 55.4 °F 77% 30.05 in 10.0 mi SSE 23.0 mph - N/A   Overcast
1:50 PM 62.6 °F 55.4 °F 77% 30.06 in 7.0 mi SSE 27.6 mph - N/A   Overcast
2:30 PM 62.6 °F 55.4 °F 77% 30.07 in 2.5 mi South 13.8 mph - N/A Rain Light Rain
2:55 PM 57.2 °F 57.2 °F 100% 30.09 in 2.5 mi South 13.8 mph - N/A Rain Light Rain
3:20 PM 57.2 °F 57.2 °F 100% 30.10 in 7.0 mi Calm Calm - N/A Rain Light Rain
3:45 PM 57.2 °F 57.2 °F 100% 30.10 in 7.0 mi SE 6.9 mph - N/A   Overcast
4:45 PM 57.2 °F 57.2 °F 100% 30.10 in 7.0 mi ESE 8.1 mph - N/A   Overcast
5:45 PM 57.2 °F 57.2 °F 100% 30.12 in 7.0 mi ESE 8.1 mph - N/A   Overcast
6:45 PM 53.6 °F 53.6 °F 100% 30.13 in 7.0 mi SE 6.9 mph - N/A   Scattered Clouds
7:45 PM 53.6 °F 53.6 °F 100% 30.14 in 7.0 mi SE 6.9 mph - N/A   Mostly Cloudy
8:15 PM 51.8 °F 51.8 °F 100% 30.14 in 10.0 mi Calm Calm - N/A   Scattered Clouds
8:35 PM 53.6 °F 53.6 °F 100% 30.15 in 10.0 mi Calm Calm - N/A   Partly Cloudy
8:45 PM 51.8 °F 51.8 °F 100% 30.14 in 7.0 mi Calm Calm - N/A   Clear
8:55 PM 51.8 °F 51.8 °F 100% 30.14 in 10.0 mi Calm Calm - N/A   Scattered Clouds
9:55 PM 51.8 °F 51.8 °F 100% 30.15 in 10.0 mi Calm Calm - N/A   Clear
10:15 PM 50.0 °F 50.0 °F 100% 30.15 in 10.0 mi Calm Calm - N/A   Clear
10:35 PM 48.2 °F 48.2 °F 100% 30.15 in 10.0 mi Calm Calm - N/A   Clear
10:55 PM 48.2 °F 48.2 °F 100% 30.15 in 10.0 mi Calm Calm - N/A   Scattered Clouds
11:15 PM 48.2 °F 48.2 °F 100% 30.16 in 10.0 mi Calm Calm - N/A   Overcast
11:35 PM 50.0 °F 50.0 °F 100% 30.17 in 10.0 mi NW 4.6 mph - N/A   Mostly Cloudy
11:55 PM 48.2 °F 48.2 °F 100% 30.17 in 10.0 mi Calm Calm - N/A   Clear